Find Kosmos-1946

NORAD ID: 19163 Int'l Des: 1988-043 Owner: UNKS Country: SU Constellation: GLONASS operational
MEOCIRCULAR

Live-Position

3D-Globus wird geladen...

Über Kosmos-1946

Beschreibung wird geladen...

Nächste Überflüge

Passes for default location (London). Set your location on the main map for personalized predictions.

Höhenverlauf

Loading altitude history...

Zweizeiliger Elementsatz

1 19163U 88043A 26102.86421844 .00000048 00000-0 00000+0 0 9992
2 19163 64.9319 75.8396 0003306 77.0590 145.2592 2.13103056294208
Epoch: 12. Apr. 2026 • Age: 40 hours

Aktueller Status

Höhe 19129.5 km
Geschwindigkeit 3.96 km/s
Subsatellitenpunkt 53.86°N, 80.75°E
Startdatum 21. Mai 1988
Alter 37.8 years
Typ other

Technische Details

Klassifizierung Payload
Masse 1300.00 kg
Trockenmasse 1200.00 kg
Gesamtmasse 1300.00 kg
Länge 4.00 m
Durchmesser 1.50 m
Spannweite 7.80 m
Form Cyl + Ant + 2 Pan
Hersteller OAZ
Bus-Typ Uragan
Phasenstatus In Orbit
Besitzer/Staat UNKS/SU

Most Searched